Monte Cimone, Italy

11:49 PM CET on February 13, 2016 (GMT +0100)
Monte Cimone

Weather History for LIVC - October, 2013

Change the Weather History Date:

Sunday, October 6, 2013

  Actual Average Record
Temperature  
Mean Temperature 44 °F -  
Max Temperature 48 °F 41 °F 55 °F (2004)
Min Temperature 41 °F 33 °F 24 °F (2003)
Degree Days  
Heating Degree Days 20    
Moisture  
Dew Point 43 °F    
Average Humidity 97    
Maximum Humidity 100    
Minimum Humidity 92    
Precipitation  
Precipitation 0.00 in 0.11 in - ()
Sea Level Pressure  
Sea Level Pressure 30.20 in    
Wind  
Wind Speed 9 mph ()    
Max Wind Speed 17 mph    
Max Gust Speed -    
Visibility 0.0 miles    
Events Fog , Rain    
Averages and records for this station are not official NWS values.
T = Trace of Precipitation, MM = Missing Value Source: Averaged Metar Reports

Daily Weather History Graph

Daily Weather History Graph

Search for Another Location

Airport or City:

Trip Planner

Search our weather history database for the weather conditions in past years. The results will help you decide how hot, cold, wet, or windy it might be!

Date:

Astronomy

Oct. 06, 2013 Rise Set
Actual Time 7:20 AM CEST 6:48 PM CEST
Civil Twilight 6:51 AM CEST 7:17 PM CEST
Nautical Twilight 6:18 AM CEST 7:51 PM CEST
Astronomical Twilight 5:44 AM CEST 8:24 PM CEST
Moon 8:51 AM CEST (10/6) 7:31 PM CEST (10/6)
Length of Visible Light 12h 25m
Length of Day
11h 28m
New Moon, 2% of the Moon is Illuminated
Oct 6
New Moon
Oct 12
First Quarter
Oct 19
Full
Oct 27
Last Quarter
Nov 3
New

Hourly Weather History & Observations

Time (CEST) Temp. Windchill Dew Point Humidity Pressure Visibility Wind Dir Wind Speed Gust Speed Precip Events Conditions
12:55 AM 48.2 °F - 46.4 °F 93% 30.21 in 0.0 mi East 5.8 mph - N/A Fog , Rain Light Rain
1:55 AM 48.2 °F - 48.2 °F 100% 30.21 in 0.0 mi SE 5.8 mph - N/A Fog , Rain Light Rain
2:00 AM 47 °F - 47 °F 100%  in 0 mi SE 5.8 mph - - Rain Light Rain
2:55 AM 46.4 °F 43.5 °F 46.4 °F 100% 30.21 in 0.0 mi SE 5.8 mph - N/A Fog , Rain Light Rain
3:55 AM 44.6 °F 41.4 °F 44.6 °F 100% 30.18 in 0.0 mi SE 5.8 mph - N/A Fog , Rain Light Rain
4:55 AM 44.6 °F 41.4 °F 42.8 °F 93% 30.18 in 0.0 mi SE 5.8 mph - N/A Fog , Rain Light Rain
5:55 AM 44.6 °F 38.1 °F 42.8 °F 93% 30.18 in 0.0 mi ESE 13.8 mph - N/A Fog , Rain Light Rain
6:55 AM 42.8 °F 36.2 °F 42.8 °F 100% 30.18 in 0.0 mi ESE 12.7 mph - N/A Fog Fog
7:55 AM 41.0 °F 33.9 °F 41.0 °F 100% 30.18 in 0.0 mi ESE 12.7 mph - N/A Fog Fog
8:00 AM 42 °F - 40 °F 92%  in 0 mi ESE 12.7 mph - - Fog Heavy Fog
8:55 AM 41.0 °F 33.1 °F 41.0 °F 100% 30.18 in 0.0 mi East 15.0 mph - N/A Fog Fog
9:55 AM 41.0 °F 32.5 °F 41.0 °F 100% 30.18 in 0.0 mi NE 17.3 mph - N/A Fog Fog
10:55 AM 41.0 °F 33.5 °F 41.0 °F 100% 30.21 in 0.0 mi NE 13.8 mph - N/A Fog Fog
12:55 PM 44.6 °F 39.7 °F 42.8 °F 93% 30.21 in 0.0 mi East 9.2 mph - N/A Fog Fog
1:55 PM 44.6 °F 38.1 °F 42.8 °F 93% 30.21 in 0.0 mi SE 13.8 mph - N/A Fog Fog
2:00 PM 45 °F - 43 °F 92%  in 0 mi SE 13.8 mph - - Fog Heavy Fog
2:55 PM 44.6 °F 37.8 °F 42.8 °F 93% 30.21 in 0.0 mi SE 15.0 mph - N/A Fog Fog
3:55 PM 44.6 °F 38.1 °F 42.8 °F 93% 30.21 in 0.0 mi SE 13.8 mph - N/A Fog , Rain Light Rain
4:55 PM 44.6 °F 38.8 °F 44.6 °F 100% 30.21 in 0.0 mi ESE 11.5 mph - N/A Fog , Rain Light Rain
5:55 PM 44.6 °F 38.1 °F 44.6 °F 100% 30.21 in 0.0 mi East 13.8 mph - N/A Fog , Rain Light Rain
6:55 PM 42.8 °F 34.8 °F 42.8 °F 100% 30.21 in 0.0 mi ESE 17.3 mph - N/A Fog , Rain Light Rain
7:55 PM 42.8 °F 35.4 °F 42.8 °F 100% 30.21 in 0.0 mi ENE 15.0 mph - N/A Fog , Rain Light Rain
8:55 PM 42.8 °F 36.2 °F 42.8 °F 100% 30.21 in 0.0 mi ENE 12.7 mph - N/A Fog Fog
9:55 PM 42.8 °F 35.8 °F 42.8 °F 100% 30.21 in 0.0 mi ENE 13.8 mph - N/A Fog Fog
10:55 PM 42.8 °F 36.6 °F 42.8 °F 100% 30.21 in 0.0 mi ENE 11.5 mph - N/A Fog Fog
11:55 PM 42.8 °F 35.4 °F 41.0 °F 93% 30.21 in 0.0 mi ENE 15.0 mph - N/A Fog Fog